Location: Table Mountain
(47.2500°N, 120.5778°W)
Time: 06:49:01
(UTC-07:00)

OTV 5 (USA 277) - Pass Details

Date: 13 October 2017
Orbit: 404 x 417 km, 43.0° (Epoch: 07 September)

Event Time Altitude Azimuth Distance (km) Brightness Sun altitude
Rises 20:29:59 0° 257° (WSW) 2,349 ? -23.1°
Reaches altitude 10° 20:32:09 10° 249° (WSW) 1,486 ? -23.5°
Enters shadow 20:33:59 26° 229° (SW) 851 ? -23.8°
